Regional Weather Roundup
Issued by NWS Green Bay, WI

Home | Current Version | Previous Version | Text Only | Print | Product List | Glossary On
Versions: 1 2 3 4 5 6 7 8 9 10 11 12 13 14 15 16 17 18 19 20 21 22 23 24 25 26 27 28 29 30 31 32 33 34 35 36 37 38 39 40 41 42 43 44 45 46 47 48 49 50
000
ASUS43 KGRB 210359
RWRGRB

NORTH-CENTRAL AND NORTHEAST WISCONSIN REGIONAL WEATHER ROUNDUP
NATIONAL WEATHER SERVICE GREEN BAY WI
1100 PM CDT SUN APR 20 2014

WIZ005-009-010>012-018-019-210500-
NORTH CENTRAL WISCONSIN

CITY           SKY/WX    TMP DP  RH WIND       PRES   REMARKS
IRONWOOD       CLEAR     37  28  70 CALM      29.96F
MANITOWISH WTR NOT AVBL
ARBOR VITAE    NOT AVBL
EAGLE RIVER    NOT AVBL
LAND O LAKES   NOT AVBL
RHINELANDER    FOG       44  44 100 CALM      30.01F VSB 3/4
PHILLIPS       NOT AVBL
ANTIGO         NOT AVBL
TOMAHAWK       NOT AVBL
MERRILL        NOT AVBL
$$

WIZ013-073-210500-
NORTHEAST WISCONSIN

CITY           SKY/WX    TMP DP  RH WIND       PRES   REMARKS
IRON MOUNTAIN  FOG       41  41 100 CALM      29.99S VSB 1/4
MARINETTE      MOCLDY    48  46  93 CALM      30.00S
$$

WIZ017-030-035>037-045-210500-
CENTRAL WISCONSIN

CITY           SKY/WX    TMP DP  RH WIND       PRES   REMARKS
MEDFORD        NOT AVBL
WAUSAU         CLOUDY    55  52  89 CALM      29.97F
MOSINEE        NOT AVBL
MARSHFIELD     CLOUDY    54  52  93 E3        29.98F FOG
WISC RAPIDS    LGT RAIN  54  52  93 E5        29.99F
STEVENS POINT  NOT AVBL
WAUPACA        NOT AVBL
SHAWANO        NOT AVBL
CLINTONVILLE   NOT AVBL
$$

WIZ038-039-048-051-210500-
FOX VALLEY

CITY           SKY/WX    TMP DP  RH WIND       PRES   REMARKS
NWS GREEN BAY  MOCLDY    51  50  96 N3        30.00F FOG
APPLETON       CLOUDY    52  52 100 CALM      30.01
OSHKOSH        MOCLDY    50  47  89 CALM      29.98F
FOND DU LAC    CLOUDY    52  47  83 CALM      29.98F
$$

WIZ022-050-052-210500-
EAST CENTRAL WISCONSIN

CITY           SKY/WX    TMP DP  RH WIND       PRES   REMARKS
STURGEON BAY   CLOUDY    50  41  71 S6        30.01S
MANITOWOC      NOT AVBL
SHEBOYGAN      MOCLDY    46  38  73 CALM      29.99F
$$

LMZ563-521-522-541>543-210500-
LAKESHORE

STATION/POSITION TIME  TEMP    WIND        PRES    VSBY  WAVE
                       AIR SEA DIR/SP/G                  HT/PER
                 (UTC) (F)     (DEG/KT/KT) (MB)    (MI)  (FT/S)
SHEBOYGAN LKSHOR 0300   43     140/  3/  4 1017.0S
KEWAUNEE LKSHORE 0300   42     170/  2/  4 1016.7F
NORTHPORT PIER   0300   46     160/  3/  6 1016.3S
SISTER BAY LKSHO 0300   49        CALM       N/A
MENOMINEE LKSHOR 0300   41     310/  2/  3 1016.7F
$$



USA.gov is the U.S. government's official web portal to all federal, state and local government web resources and services.